map of YYH home
YYH - Airport
Location
City:  Taloyoak, Kitikmeot, Nunavut, Canada
Near (Alt.):Spence Bay
Name:Taloyoak Airport
ICAO:CYYH
IATA:YYH

Details
Type:Airport (Airfield)
Use:Public/Civil
Latitude:6932'48"N (69.546667)
Longitude:9334'37"W (-93.576943)
Elevation:90 ft (27 m)
Variation:11.36W (WMM2015v2 magnetic declination)
0.50 annual change
Runways:1
Longest:4009 ft (1222 m)

Time
Time Zone:UTC-6 (DST-5)
Local Time:

Weather
METAR:CYYH 041400Z 01004KT 15SM IC FEW130 FEW140 FEW170 FEW190 FEW200 M36/M41 A3015 RMK AC1AC1AC1CI1CI1 AC TR AC TR CI TR FROIN SLP217
TAF:CYYH 041138Z 0412/0424 VRB03KT P6SM IC FEW160
RMK NXT FCST BY 041800Z

Related Locations
Nearby:
Farthest:YWKS: 11760 mi / 18926 km
Wilkins Runway (Casey), Upper Peterson Glacier, AQ

Find:

   beyond  
but within

Other Information
Maps:
NOTAMs:
Links:
Sources:

  
  • flag of Canada
  • flag of Nunavut
  

Airport Diagram

Airport diagram for YYH

Airport diagram PDF

Sectional Chart

Flight Planning
at skyvector.com

Satellite Image

Google Maps Satellite view

 

Copyright © 2004-2019 Karl L. Swartz. All rights reserved.
The Great Circle Mapper name and logo are trademarks of the Great Circle Mapper.
All other trademarks mentioned herein belong to their respective owners.
Please see credits for attibutions and further copyright information.

  Follow gcmap on Facebook Follow gcmap on Twitter GCmap on LinkedIn

hCard Microformat

Geo Microformat